Location: Ertinghausen
(51.6624°N, 9.7874°E)
Time: 12:24:25
(UTC+00:00)

CZ-2C R/B - Pass Details

Date: 17 August 2024
Orbit: 703 x 903 km, 98.2° (Epoch: 14 September)

Event Time Altitude Azimuth Distance (km) Brightness Sun altitude
Rises 01:34:53 0° 14° (NNE) 3,223 7.5 -19.2°
Reaches altitude 10° 01:37:08 10° 14° (NNE) 2,320 6.5 -19.0°
Maximum altitude 01:42:16 86° 286° (WNW) 808 3.0 -18.5°
Enters shadow 01:44:54 31° 199° (SSW) 1,388 3.8 -18.3°
